Retour au catalogue

THORAD AGENA D DEB

ActifPO
NORAD 4777·DEBRIS·🇺🇸 United States

Lancé Apr 8, 1970 depuis Vandenberg Space Force Base

Loading…

Prochains Passages (prochaines 24 heures)

TLE

FraisSource: Space-Track

Époque: Sep 14, 2026, 13:41 UTC

1  4777U 70025DX  26257.57040602  .00000821  00000-0  68309-3 0  9995
2  4777  99.9462  17.5595 0006664 223.4047 199.9236 13.91926575819478

Suivez THORAD AGENA D DEB en temps réel avec AllMySat

Download on the App Store